This is the latest recevied weather packets stored in our database for station/object KB7KFC-3. If no packets are shown the sender has not sent any weather packets the latest 1 day(s).
| Time | Temp. | Humidity | Pressure | Rain* | Wind** | Luminosity | Snow |
|---|---|---|---|---|---|---|---|
| 1778099285 | 27.22° C | 20% | 1016 hPa | 0 mm | - | - | - |
| 1778099106 | 27.22° C | 21% | 1016 hPa | 0 mm | - | - | - |
| 1778098925 | 27.22° C | 22% | 1015.9 hPa | 0 mm | - | - | - |
| 1778098566 | 26.67° C | 21% | 1016.1 hPa | 0 mm | - | - | - |
| 1778095144 | 26.11° C | 21% | 1016.6 hPa | 0 mm | - | - | - |
| 1778094965 | 26.11° C | 20% | 1016.7 hPa | 0 mm | - | - | - |
| 1778093885 | 26.11° C | 24% | 1017 hPa | 0 mm | - | - | - |
| 1778093706 | 26.11° C | 28% | 1017 hPa | 0 mm | - | - | - |
| 1778093525 | 26.11° C | 25% | 1017 hPa | 0 mm | - | - | - |
| 1778092444 | 25° C | 22% | 1017.3 hPa | 0 mm | - | - | - |
| 1778092265 | 25.56° C | 22% | 1017.4 hPa | 0 mm | - | - | - |
| 1778090645 | 24.44° C | 27% | 1017.5 hPa | 0 mm | - | - | - |
| 1778090466 | 23.89° C | 26% | 1017.5 hPa | 0 mm | - | - | - |
| 1778088485 | 23.89° C | 28% | 1017.5 hPa | 0 mm | - | - | - |
| 1778087945 | 23.33° C | 28% | 1017.5 hPa | 0 mm | - | - | - |
| 1778087764 | 23.89° C | 29% | 1017.5 hPa | 0 mm | - | - | - |
| 1778087224 | 22.78° C | 28% | 1017.5 hPa | 0 mm | - | - | - |
| 1778087045 | 22.78° C | 28% | 1017.5 hPa | 0 mm | - | - | - |
| 1778086324 | 22.22° C | 29% | 1017.6 hPa | 0 mm | - | - | - |
| 1778085965 | 22.22° C | 29% | 1017.6 hPa | 0 mm | - | - | - |
| 1778085245 | 21.67° C | 30% | 1017.5 hPa | 0 mm | - | - | - |
| 1778083985 | 21.11° C | 31% | 1017.5 hPa | 0 mm | - | - | - |
| 1778083625 | 21.11° C | 31% | 1017.6 hPa | 0 mm | - | - | - |
| 1778083444 | 21.11° C | 33% | 1017.6 hPa | 0 mm | - | - | - |
| 1778082724 | 20.56° C | 35% | 1017.6 hPa | 0 mm | - | - | - |
* Rain latest hour (hover to see other rain measurements)
** Current wind speed in m/s (hover to see current wind gust speed)